Theta_e
306 297 294 294 297 298 298 299 297 290 290 293 292 291 289 288 287 288 291 293 298 297 297 298 299 298 300 301 303 304 300 298 299 299 301 302 303 303 303 304 304 304 306 310 309 309 309 310 310 311 314 317 318 320 320 319 319 319 319 318 318 319 319 319 319 319 319 318 318 317 319 320 321 321 321 321 322 323 323 323 322 322 322 323 323 323
304 294 295 298 300 300 299 299 299 295 293 290 290 290 288 287 289 290 294 295 294 297 295 297 297 298 299 301 303 303 301 300 300 300 300 302 303 303 303 303 303 305 305 306 307 308 307 308 309 309 310 311 314 317 320 320 321 321 320 319 319 319 319 319 320 320 320 320 320 320 320 320 321 320 320 321 322 322 323 322 322 322 322 322 322 322
295 293 298 301 302 301 299 299 299 297 295 290 288 288 288 289 288 290 292 293 293 295 294 292 294 296 298 299 301 300 301 303 303 303 303 302 302 302 303 303 304 304 305 306 306 306 307 307 308 308 310 311 313 315 318 321 321 321 321 321 321 320 320 320 320 320 320 321 321 321 320 320 319 321 322 322 321 322 322 322 322 323 323 322 322 322
290 295 299 302 302 299 297 297 297 296 295 293 290 286 287 289 290 286 291 293 293 295 287 288 291 294 292 294 299 301 300 300 303 303 303 303 303 303 304 305 306 305 306 307 308 307 307 307 307 306 308 310 311 312 314 318 320 321 321 321 321 320 320 320 320 319 321 321 321 320 319 316 321 319 319 321 321 321 321 321 323 323 323 323 322 322
293 299 301 300 299 298 296 296 295 294 292 294 293 290 289 287 290 290 288 291 291 292 292 290 289 291 291 293 293 296 296 297 299 299 300 302 302 304 304 304 303 305 306 306 307 308 308 308 307 307 309 309 309 311 313 315 318 320 321 321 321 321 321 321 320 319 320 319 316 318 315 314 315 316 315 316 318 320 320 320 320 322 323 322 322 322
295 301 301 299 298 297 297 294 295 294 291 292 294 293 292 289 290 290 290 292 290 290 290 290 284 286 292 292 294 297 293 294 296 297 299 301 302 301 302 303 304 304 304 305 307 308 309 309 309 308 308 308 309 310 312 314 316 317 320 321 321 321 321 321 321 320 319 319 319 317 317 316 317 317 317 317 318 318 318 319 321 320 321 322 321 322
296 301 300 297 297 296 296 295 296 296 291 289 290 296 293 289 290 290 289 291 286 285 288 289 287 283 282 286 291 293 295 297 296 296 298 300 301 301 302 303 304 305 305 305 305 306 306 307 307 308 308 309 309 310 311 311 313 315 317 319 320 321 321 322 321 320 319 319 319 318 318 319 318 318 319 321 321 320 320 319 318 320 318 320 321 321
297 297 297 297 297 295 294 293 296 296 293 289 293 294 292 290 290 290 290 290 286 288 289 289 289 285 285 288 287 290 292 294 295 295 297 298 298 300 301 302 303 305 305 306 307 306 306 307 308 309 311 309 308 308 308 310 312 313 315 316 318 320 320 322 322 320 320 320 319 318 318 318 319 319 319 320 320 319 318 318 319 318 318 319 320 321
295 293 295 295 295 293 293 296 298 298 294 291 293 296 294 294 290 289 290 288 288 288 284 286 287 285 284 287 288 289 288 290 291 292 295 296 297 299 300 301 302 304 305 306 306 306 307 307 308 308 308 306 305 305 306 307 309 312 314 315 316 318 319 320 321 320 320 320 320 319 319 318 319 320 320 320 317 318 317 317 317 317 318 318 318 320
293 295 295 297 295 292 296 299 298 298 293 293 297 298 296 295 293 292 287 288 286 286 283 287 288 284 284 285 287 287 289 291 293 293 294 295 297 298 300 301 302 303 304 304 305 307 307 308 307 303 301 301 302 304 305 305 306 307 309 312 314 316 318 319 319 320 320 320 319 319 319 318 319 319 319 319 318 316 314 316 316 316 316 317 317 318
294 296 297 297 295 298 298 299 298 298 298 294 295 293 293 293 292 289 289 287 287 283 285 290 288 286 281 287 287 288 288 292 291 292 294 295 297 298 299 301 302 303 304 304 305 305 306 304 299 298 299 300 299 299 301 303 304 305 306 309 312 315 316 315 317 318 319 319 319 319 319 319 319 319 319 317 317 317 313 315 316 315 316 316 317 317
291 292 294 295 297 297 297 295 295 297 295 295 291 289 290 287 289 287 285 287 283 281 288 290 288 287 280 284 287 291 289 292 295 295 294 296 297 299 300 301 302 303 303 304 304 305 304 299 297 296 298 298 299 298 298 299 301 303 305 305 307 310 312 314 316 317 318 318 318 319 319 318 319 319 318 317 317 318 316 316 317 316 314 315 315 315
287 289 292 295 296 296 294 294 291 294 295 293 291 290 286 282 284 280 284 280 280 281 287 289 289 284 284 289 285 285 287 290 291 293 296 297 298 299 300 302 303 303 303 303 303 301 298 297 297 297 298 297 298 299 298 299 300 301 302 303 305 307 307 312 313 315 316 317 318 319 319 319 319 319 318 318 318 318 317 317 316 314 315 314 313 314
284 288 290 292 295 297 295 291 288 287 290 292 289 287 284 280 279 277 280 282 283 285 286 284 289 285 289 292 295 295 296 292 293 294 295 296 297 298 299 300 301 301 300 300 299 297 296 296 297 297 298 298 298 298 299 299 299 300 302 302 304 306 304 306 309 313 314 316 318 318 319 319 319 318 318 319 319 319 318 317 316 315 316 315 315 315
275 277 284 290 286 296 295 295 294 291 291 291 294 291 287 286 281 276 280 277 279 281 282 283 283 279 285 286 290 296 297 299 300 298 296 296 296 298 298 297 296 296 295 295 294 295 296 296 295 297 298 298 299 299 299 299 300 300 302 303 304 304 303 305 307 309 312 315 315 316 318 318 318 319 318 318 318 318 317 316 316 316 316 316 316 316
279 278 281 293 292 295 292 295 295 293 290 291 290 293 288 286 289 283 284 283 281 278 280 282 282 286 288 292 290 291 290 292 294 297 299 298 297 296 296 297 298 297 296 295 294 295 295 294 294 294 295 296 297 297 296 297 297 300 300 302 303 304 303 303 305 305 306 308 310 311 314 316 316 316 316 316 315 316 316 316 316 316 316 316 316 316
280 278 282 288 293 294 294 296 292 295 284 289 290 285 289 293 292 285 283 280 284 282 280 285 283 285 290 294 295 294 292 291 290 292 295 297 299 298 297 298 297 297 295 294 295 296 295 295 295 296 296 296 296 295 295 295 295 297 299 300 300 299 298 299 298 299 299 301 305 306 307 310 311 311 312 314 313 313 313 314 315 315 316 315 315 315
278 278 282 284 285 289 293 294 293 295 295 291 286 290 292 292 289 286 280 280 277 278 280 285 282 283 283 282 287 293 292 292 292 292 294 295 296 296 298 298 298 297 294 293 295 296 295 295 295 295 294 294 295 295 294 294 293 294 295 296 297 297 298 297 297 298 298 298 300 300 301 302 305 308 310 311 313 312 312 311 312 311 312 312 313 313
282 275 279 286 287 287 291 294 291 293 293 292 289 291 288 282 282 281 282 277 275 277 280 283 283 284 285 286 284 286 290 292 292 292 292 292 293 295 297 298 296 297 296 295 294 293 294 294 294 294 294 294 293 293 292 293 293 293 293 294 295 295 294 295 295 294 295 296 297 298 298 298 299 301 304 305 307 308 308 309 308 309 309 309 308 308
283 275 276 282 283 287 290 291 284 289 293 290 292 288 289 288 286 284 283 283 284 278 280 278 282 280 287 289 290 286 288 291 292 292 292 294 295 295 296 295 295 297 298 296 294 294 293 294 293 293 293 293 293 292 292 292 292 292 292 293 293 292 292 293 294 293 295 295 295 296 296 297 298 300 303 304 305 306 306 306 306 306 306 308 306 307
279 279 270 280 286 288 285 290 286 289 286 287 288 286 287 286 289 287 287 285 281 279 280 278 278 278 284 289 290 290 290 291 293 294 295 295 294 292 292 293 295 297 296 295 294 294 293 293 293 293 293 292 291 291 291 291 291 291 292 292 292 293 292 293 292 293 293 293 295 295 296 296 297 299 302 303 303 302 302 302 302 305 305 303 304 303
277 276 275 284 284 283 286 294 291 290 291 289 289 287 289 286 284 281 279 290 284 282 275 278 277 283 285 287 290 292 292 292 294 293 294 292 293 291 290 291 292 294 294 294 294 293 293 293 293 293 292 292 292 292 291 291 291 291 291 291 290 291 291 291 292 292 293 293 294 294 294 294 294 295 296 297 296 296 297 297 299 301 302 304 302 302
284 276 276 279 284 285 283 286 285 286 288 291 291 288 289 288 288 284 279 282 284 285 284 277 277 280 287 287 286 286 286 287 287 287 290 290 290 289 289 290 290 292 293 293 293 293 293 293 293 291 291 291 291 291 291 291 291 291 291 290 290 290 290 290 290 291 291 292 293 293 293 293 293 294 294 294 294 293 294 294 294 295 298 299 301 300
293 276 275 272 281 284 286 281 282 281 287 286 286 288 286 286 287 287 286 285 282 284 284 282 280 283 290 286 283 283 284 284 284 285 289 289 289 290 290 290 290 291 291 291 291 292 292 292 291 291 291 291 291 291 291 291 291 291 291 290 290 289 289 290 290 290 290 291 291 291 291 291 291 292 292 291 291 291 291 292 292 293 294 295 296 296
284 279 281 272 273 279 284 286 286 285 284 283 283 287 289 289 288 283 282 282 279 281 283 282 278 284 288 286 284 284 284 287 288 287 285 288 289 289 290 290 290 290 290 290 290 291 291 290 290 291 291 291 290 290 290 290 290 290 290 290 289 289 288 289 289 289 289 289 289 289 289 289 289 290 290 289 289 289 289 289 290 290 291 292 292 292
286 281 282 275 273 272 272 274 277 280 283 285 282 285 287 287 285 285 283 284 280 283 283 278 280 285 287 287 286 286 285 287 289 288 288 287 288 289 289 289 289 289 290 289 289 290 290 290 289 289 290 290 290 290 290 290 290 289 289 290 289 289 289 289 289 289 289 288 288 288 287 287 287 287 287 287 288 288 288 288 288 289 289 289 290 289
281 281 283 282 279 277 279 281 287 288 285 281 282 287 285 286 288 288 285 284 281 285 283 283 284 284 286 289 289 289 285 288 289 289 289 290 289 288 288 288 289 289 289 289 289 289 288 288 288 289 289 289 289 288 288 288 289 289 289 289 288 288 288 288 288 288 287 287 288 288 286 286 286 286 286 286 286 286 287 287 286 287 287 286 286 287
278 282 283 283 283 283 284 281 284 288 283 284 284 285 287 285 286 285 284 282 287 284 280 287 287 284 287 290 291 291 292 289 287 288 290 290 290 290 290 288 291 289 289 288 288 288 288 288 287 287 288 288 288 287 287 286 287 287 287 287 287 286 287 289 288 287 287 287 288 287 287 286 286 286 286 286 286 287 286 286 286 286 285 285 286 286
282 281 285 282 282 284 284 280 282 284 284 284 284 284 284 285 285 285 285 287 286 282 280 285 286 286 289 291 293 294 295 295 295 293 292 292 291 290 290 290 290 290 290 289 289 288 288 288 288 287 286 286 285 285 285 285 286 286 286 285 285 285 285 286 287 287 287 287 287 286 286 286 286 287 287 286 287 287 286 286 285 285 286 286 285 286
286 282 283 283 282 283 280 281 281 281 280 279 283 284 285 285 285 286 286 287 286 284 284 285 284 286 290 291 292 294 294 295 292 290 290 291 291 292 292 291 291 291 292 293 293 292 290 289 287 286 285 285 284 284 284 284 284 284 285 285 284 285 285 286 286 287 287 287 286 286 286 286 286 286 286 287 286 285 285 286 286 286 286 286 285 285
286 283 286 279 279 280 281 282 280 280 280 280 280 282 284 285 286 287 287 287 287 286 286 286 283 284 288 289 291 290 288 292 292 291 293 294 295 294 294 294 294 294 294 294 294 293 292 289 286 284 284 284 283 283 284 284 283 283 283 283 284 285 284 285 285 285 285 285 285 285 285 285 285 285 286 286 286 286 286 286 286 286 286 286 286 285
285 278 279 278 277 277 277 280 281 277 277 276 275 276 277 279 281 284 285 287 286 285 286 286 284 285 290 290 291 289 290 291 292 292 293 294 294 293 293 294 294 294 294 294 294 294 292 291 288 286 285 285 284 283 284 284 283 283 283 282 283 283 284 284 284 284 284 284 284 284 284 284 285 285 285 285 285 285 285 285 286 286 285 286 285 285
282 278 277 276 277 278 275 280 278 276 273 276 278 281 282 283 286 287 288 289 288 289 285 284 285 291 293 292 290 291 290 290 290 292 293 294 294 293 293 294 294 295 295 296 295 294 293 291 290 289 287 284 285 285 284 284 284 284 283 283 282 282 283 283 283 283 283 283 283 283 283 283 284 284 284 283 283 284 284 284 285 285 285 285 284 284
283 283 279 279 277 276 274 276 275 276 272 274 286 288 286 284 284 283 284 286 288 289 288 291 291 293 293 289 290 292 290 291 293 295 296 297 295 293 292 293 294 294 294 293 294 294 292 290 288 287 286 285 284 284 283 282 284 283 282 282 281 282 282 282 282 282 282 282 282 282 282 283 283 283 283 283 283 283 283 284 283 283 283 283 284 284
282 282 278 273 275 271 275 277 275 271 274 286 287 288 288 288 288 286 287 288 288 289 290 289 289 290 290 290 292 292 292 293 294 294 294 292 293 292 293 293 294 293 293 293 292 290 291 291 289 285 284 284 284 283 283 283 282 282 282 281 282 281 282 282 282 282 281 282 282 282 282 282 282 282 282 282 282 283 283 283 283 283 283 283 283 283
282 282 277 274 273 276 275 278 271 273 282 283 283 281 285 287 288 286 285 288 288 289 290 289 291 291 291 289 290 290 290 290 289 286 287 289 292 293 291 293 294 294 293 293 293 293 291 290 289 287 286 284 283 283 283 283 282 282 281 281 281 281 281 281 281 281 281 281 281 281 281 281 281 281 281 282 282 282 282 282 282 282 282 282 282 282
285 283 282 279 277 275 275 277 276 280 280 280 281 280 284 282 282 283 280 284 288 287 288 289 290 292 292 292 287 285 285 287 287 288 287 289 291 293 296 296 296 295 295 294 293 294 293 290 287 285 284 284 284 284 283 282 282 282 282 282 281 281 281 281 281 281 281 281 281 281 281 281 281 281 281 281 281 281 281 281 282 282 281 282 282 282
286 283 283 281 275 278 275 274 275 274 272 278 284 282 285 287 288 288 285 283 283 287 289 290 289 291 291 288 286 284 285 286 283 287 292 291 290 291 291 293 292 291 289 290 288 289 287 285 284 284 285 284 283 283 282 282 282 282 282 281 281 281 281 281 281 280 281 281 280 280 280 280 280 280 280 280 281 280 280 280 280 280 280 281 282 282
283 284 282 282 278 275 274 274 274 273 276 281 281 282 285 285 287 285 281 280 284 287 289 290 290 291 291 287 283 285 285 280 284 289 293 288 288 290 291 291 288 288 287 286 287 287 284 284 284 283 283 283 282 282 282 282 282 282 281 280 280 281 281 281 280 281 281 280 280 280 280 280 280 280 280 280 280 279 280 280 280 279 280 280 281 281
282 281 280 278 275 277 277 274 273 272 275 278 281 281 283 285 288 286 271 274 285 285 288 288 289 290 290 286 285 286 286 283 285 290 285 284 286 287 288 290 290 289 287 284 284 285 284 283 283 282 283 283 282 282 281 281 282 281 280 280 280 281 280 280 280 279 279 280 280 279 280 279 279 279 280 280 279 279 279 279 279 280 280 280 281 282
279 278 279 277 279 278 278 273 269 273 278 279 277 279 282 287 286 276 272 281 281 284 287 289 289 290 289 285 287 286 288 292 290 286 283 283 285 285 284 284 283 283 284 282 281 283 282 282 284 283 283 282 281 281 281 282 281 280 280 280 281 280 280 279 279 279 280 279 279 279 279 279 279 279 279 279 280 280 281 282 282 282 282 282 283 283
280 280 279 279 277 277 278 276 275 275 277 281 278 284 284 284 271 276 282 281 282 281 283 287 289 289 285 286 287 289 291 290 284 281 283 283 285 284 281 280 280 280 280 280 281 282 281 281 281 280 280 280 280 281 281 281 281 280 280 281 280 280 280 280 281 281 280 280 280 279 279 279 279 278 278 278 279 280 281 283 283 283 283 283 283 282
280 278 276 277 278 276 275 276 274 273 278 283 284 283 284 278 279 280 279 281 280 280 283 283 285 285 285 285 287 288 289 285 285 284 282 280 281 281 280 280 280 280 280 280 280 280 281 281 280 280 279 279 280 281 281 281 281 281 281 281 281 282 282 282 282 282 282 281 280 278 278 278 279 281 281 281 282 281 281 282 281 281 281 281 280 280
284 279 278 279 282 277 276 274 275 281 282 285 287 283 284 286 281 282 284 284 281 280 283 282 284 284 283 286 285 285 284 283 282 279 279 278 278 278 278 278 279 279 279 279 279 280 281 280 280 279 279 279 279 280 281 282 281 280 281 281 283 283 283 282 282 282 281 281 280 280 279 279 280 281 281 280 281 281 281 281 281 281 281 281 280 279
286 282 283 279 282 279 278 281 283 283 285 287 289 288 290 287 281 283 282 284 283 283 280 282 282 281 283 283 282 283 282 283 282 280 281 279 278 278 279 279 279 279 279 279 279 280 280 280 280 279 279 279 279 280 280 281 281 280 280 281 282 282 282 282 282 281 281 280 280 279 278 279 280 280 280 280 280 279 279 279 278 278 278 277 277 277
282 286 284 284 282 285 285 284 283 281 281 285 284 281 282 284 280 280 282 283 282 281 283 284 280 282 281 281 284 280 282 281 281 278 278 278 278 278 278 278 278 279 279 279 280 280 280 280 280 280 279 279 279 280 280 280 281 280 280 281 282 282 281 281 280 280 280 280 279 279 279 279 280 280 279 279 279 278 277 277 277 277 276 275 275 274
279 280 282 280 281 282 279 287 284 282 282 284 287 284 281 280 282 281 283 283 281 281 282 282 281 281 282 281 284 283 280 279 279 278 278 278 278 278 278 278 278 279 279 280 280 281 281 281 281 281 281 281 281 281 281 281 281 281 281 280 280 280 280 279 279 279 279 278 278 279 279 278 278 278 278 278 278 277 276 276 274 273 274 274 274 275
279 281 282 280 281 282 282 279 282 284 284 285 286 286 284 283 282 280 281 281 281 280 281 281 281 280 280 281 282 282 279 279 279 278 278 278 278 278 278 279 279 279 279 280 281 281 281 281 281 281 281 281 281 281 281 281 281 280 279 279 279 279 278 277 277 277 277 277 278 277 277 277 276 277 276 277 276 275 275 273 273 274 274 274 275 275
281 285 280 281 280 282 282 280 278 281 282 282 281 281 283 284 284 281 279 279 278 281 280 279 280 280 280 281 280 280 279 279 279 279 279 278 278 278 279 279 279 280 280 280 280 281 281 281 281 281 282 281 281 281 281 280 279 279 278 278 277 278 277 277 276 276 276 277 277 276 276 276 276 276 276 276 276 275 275 274 275 275 276 276 275 274
282 280 280 281 279 278 281 281 281 277 275 283 284 286 286 285 282 279 278 279 278 280 279 280 279 277 279 279 280 281 280 279 278 279 278 279 279 279 279 279 279 279 279 280 280 280 280 280 281 281 281 280 280 280 279 278 278 278 277 277 276 276 276 276 276 276 276 276 275 275 276 276 276 276 275 275 273 274 275 277 278 278 277 276 279 281
283 283 281 280 280 280 281 282 285 285 283 285 288 288 287 283 281 281 280 281 281 281 280 280 279 278 278 278 278 280 280 279 279 279 279 279 279 279 279 279 279 279 279 279 279 278 279 279 279 279 279 279 279 279 278 277 276 276 276 275 275 275 275 275 274 274 274 275 275 275 276 276 275 276 275 275 274 273 273 273 274 277 279 279 279 280
Wind_Speed
4 11 11 14 16 18 17 15 12 3 2 6 4 4 4 6 4 2 4 2 3 4 12 15 14 9 13 14 14 12 4 5 6 7 8 8 8 8 8 9 10 9 13 11 4 6 7 8 8 8 7 8 7 8 9 8 10 12 12 10 12 9 9 9 8 8 8 9 7 6 10 12 10 9 8 8 8 8 8 7 8 8 9 9 9 9
8 13 14 16 18 14 14 12 8 3 3 1 3 5 5 4 8 4 5 4 3 7 7 9 9 14 13 10 14 10 7 11 10 10 10 11 11 10 9 9 9 11 6 7 8 8 6 7 7 5 6 6 8 11 10 11 14 13 12 11 12 7 9 10 11 10 9 10 10 10 11 10 9 9 9 10 8 8 7 8 8 9 10 10 11 10
10 14 16 19 12 6 6 10 11 12 11 2 1 2 4 7 1 2 3 2 0 3 9 1 9 13 10 9 9 9 12 10 10 12 12 13 12 9 8 9 10 7 10 8 7 8 7 8 7 6 7 8 11 10 10 13 12 10 9 11 9 8 9 10 10 9 11 10 10 10 7 7 5 5 6 6 5 6 7 8 10 11 10 10 11 11
11 11 18 9 7 10 9 9 9 7 5 7 6 4 8 3 7 6 5 1 1 6 1 3 8 9 5 6 11 13 10 7 8 10 10 7 9 11 11 12 12 11 10 12 11 10 8 7 7 5 7 10 8 8 7 9 11 9 8 9 9 10 10 9 10 12 12 9 7 6 4 3 6 5 4 5 5 6 7 11 11 9 11 13 10 9
13 0 3 7 8 13 12 7 8 9 11 10 9 7 7 2 7 7 3 3 1 2 1 3 8 9 6 10 7 9 7 6 8 7 8 10 8 9 8 8 8 11 10 11 10 9 8 7 8 9 10 7 7 9 10 10 9 7 10 11 11 10 10 9 9 11 8 6 5 5 2 1 0 1 2 3 6 8 10 8 8 14 11 9 10 9
16 11 4 12 13 10 11 10 13 11 12 11 12 13 9 2 4 1 0 3 2 6 3 4 4 12 9 12 14 9 3 7 6 9 13 14 12 9 12 13 11 9 8 10 12 12 11 9 7 6 7 8 9 9 10 8 7 6 8 9 8 7 7 9 10 10 8 9 9 7 7 7 8 9 7 10 13 10 10 13 9 4 7 9 8 9
12 6 4 6 9 10 13 12 12 11 11 10 10 13 6 3 4 4 3 3 4 8 4 1 11 11 2 5 9 8 11 18 6 10 15 13 12 10 11 11 12 12 12 10 11 12 11 12 10 11 10 10 9 9 5 4 5 7 8 7 8 9 9 10 9 9 9 9 9 12 13 12 11 12 10 10 8 7 7 5 6 7 5 8 9 9
3 10 8 6 6 12 11 12 11 15 11 13 1 7 6 7 7 5 6 7 3 0 2 1 4 10 13 9 4 7 12 15 12 14 14 11 10 11 11 11 12 13 13 13 14 14 12 12 13 15 16 8 6 5 4 6 6 7 9 7 8 8 9 8 7 8 10 11 10 10 10 10 11 11 12 9 7 4 5 6 8 6 7 7 8 8
8 9 11 10 8 8 13 14 12 15 12 4 6 13 13 12 3 4 5 5 3 1 5 1 2 5 10 6 2 7 7 12 15 14 14 13 12 13 13 13 13 15 15 14 13 12 13 15 16 13 10 5 4 4 5 5 5 6 7 7 6 8 8 8 8 10 11 11 11 11 10 9 9 9 9 6 4 6 6 7 6 6 7 7 7 8
3 4 8 7 8 8 7 10 7 13 13 5 9 8 5 7 5 8 4 5 1 3 10 7 4 8 16 6 5 3 8 17 17 12 13 12 13 15 15 16 15 12 10 11 13 15 15 14 9 3 3 3 4 4 4 5 5 6 5 6 7 9 8 7 6 8 9 10 9 9 10 12 11 8 8 6 6 6 5 6 6 6 6 6 6 7
1 1 4 6 10 10 7 2 6 14 9 4 6 5 3 6 8 2 3 3 0 9 11 10 8 8 13 11 10 10 10 12 6 4 7 5 9 13 12 13 13 12 12 12 13 14 15 5 1 2 5 5 4 4 5 6 6 6 6 7 8 10 7 5 6 7 9 9 8 9 10 11 12 11 8 6 7 6 4 7 7 6 7 6 7 6
6 1 0 2 2 1 3 5 2 2 1 11 5 6 6 1 3 3 1 3 11 13 11 13 13 11 14 12 6 7 4 7 11 13 8 9 12 12 12 13 13 12 11 12 12 13 9 5 4 3 5 5 6 5 5 5 5 6 7 6 8 8 7 6 7 8 9 9 9 9 10 10 11 9 7 8 9 8 8 8 8 6 4 6 6 5
11 12 2 2 2 6 4 5 1 3 3 1 6 9 12 5 5 7 5 11 13 13 7 8 10 4 19 20 2 5 6 6 6 7 9 11 13 14 15 15 14 13 13 12 10 7 5 5 4 5 5 5 6 6 6 8 7 7 6 7 8 10 6 7 6 8 9 8 9 10 11 11 10 9 9 9 9 8 8 8 7 6 7 5 4 7
5 3 3 3 3 3 4 11 5 3 4 6 10 11 10 8 8 8 8 4 4 4 1 4 10 12 5 16 15 22 15 6 7 8 8 8 9 9 9 9 9 8 7 6 6 5 5 4 4 4 5 5 6 6 7 7 6 6 6 6 8 10 5 6 6 8 8 10 10 9 10 10 9 9 9 9 10 9 7 7 7 7 7 7 8 7
6 9 9 8 10 8 9 10 11 5 11 12 5 11 11 8 4 7 7 9 6 4 2 2 5 5 9 9 1 12 14 19 21 13 9 7 9 10 9 6 6 6 6 5 5 4 4 4 4 5 4 5 6 5 6 4 4 4 5 5 7 5 4 5 7 6 8 8 8 7 8 8 7 8 7 8 7 6 6 6 6 7 6 7 7 8
13 10 5 17 7 8 8 5 1 4 3 5 4 3 6 13 2 5 2 5 4 2 3 5 8 5 12 4 3 4 3 4 5 11 17 16 11 8 10 11 9 6 5 3 3 3 4 4 3 3 2 1 1 1 1 2 3 0 1 2 2 3 1 1 1 2 3 4 3 4 5 7 6 6 6 6 5 6 5 6 6 6 6 6 6 5
5 11 4 2 9 12 14 11 5 6 8 5 4 9 9 5 9 1 4 0 2 2 9 4 5 7 8 16 11 11 1 5 5 6 9 14 18 15 14 12 7 7 4 3 4 5 3 1 1 0 0 0 1 2 1 2 3 3 1 4 4 4 4 3 2 2 1 1 1 1 1 2 3 4 5 6 4 5 4 5 6 6 6 5 5 6
10 11 2 4 5 4 1 5 6 7 1 2 10 7 4 4 4 5 8 3 4 6 5 10 13 8 5 13 2 9 12 10 6 8 11 12 11 11 12 10 10 6 4 4 2 1 1 1 1 1 1 1 1 0 1 3 3 3 1 3 4 3 4 3 3 3 3 2 2 1 0 0 2 4 4 5 5 5 4 4 5 4 5 5 4 3
5 6 2 5 7 2 5 7 1 1 1 9 4 4 6 6 9 1 0 10 3 7 6 8 10 11 11 14 0 2 10 10 7 8 7 9 9 12 14 10 5 1 1 1 2 3 2 2 1 1 1 0 1 1 2 3 2 2 2 5 5 4 3 3 3 2 3 3 2 2 3 2 2 1 1 2 2 1 3 3 3 3 3 3 3 3
2 7 3 3 4 4 5 7 13 11 1 1 2 2 1 3 5 9 9 2 4 10 6 7 5 9 9 9 9 5 6 8 8 7 8 12 12 11 9 5 4 5 5 5 4 4 3 2 1 1 1 1 2 2 3 2 1 2 3 5 4 3 3 3 4 3 3 3 3 4 4 4 3 3 2 1 1 0 0 1 1 2 3 3 2 3
1 2 8 2 2 3 9 7 12 13 12 5 7 3 3 2 2 3 2 9 5 4 10 8 10 3 8 5 6 8 7 9 11 11 10 11 9 5 5 5 4 2 2 3 3 4 3 2 2 1 1 1 2 2 2 3 2 1 3 5 4 4 3 4 3 3 3 3 4 5 5 4 4 5 4 5 5 5 4 4 3 3 2 1 2 2
2 5 10 3 4 7 5 9 11 10 9 9 10 11 10 8 8 5 6 2 3 7 4 7 13 1 2 1 4 8 5 8 9 6 7 4 1 3 3 3 2 1 1 3 3 3 3 3 2 1 1 1 1 3 3 2 2 4 5 4 4 4 4 3 4 3 3 4 4 6 4 4 4 4 5 6 5 5 4 4 3 3 3 4 3 3
5 2 2 5 4 8 3 1 2 1 4 10 12 11 8 6 5 8 7 3 1 5 2 1 2 7 5 1 2 4 4 5 4 2 5 4 4 3 2 2 1 1 3 2 2 2 2 3 3 1 1 1 2 3 3 4 4 4 4 4 4 4 4 3 3 3 3 5 6 5 4 5 5 5 5 7 5 5 5 5 4 3 4 4 3 4
1 1 4 3 2 1 0 1 2 2 3 1 5 6 6 11 11 12 9 1 3 1 7 5 6 1 1 2 2 3 4 5 4 4 6 4 1 0 0 0 1 3 2 2 2 1 1 1 2 3 2 2 3 3 4 3 3 3 3 3 2 3 3 4 4 4 4 5 6 4 5 6 3 6 5 6 4 5 5 4 5 4 4 4 3 5
9 5 7 3 1 1 2 3 2 2 0 5 5 9 11 9 9 2 3 2 1 4 4 7 11 6 2 3 2 2 3 2 3 2 2 4 1 0 1 1 1 2 2 2 3 2 1 1 3 3 1 1 2 2 2 2 2 1 1 2 3 3 3 5 5 6 4 5 8 7 7 6 5 6 6 6 5 6 5 5 4 5 5 4 5 4
8 3 11 9 11 10 9 11 12 10 11 6 1 5 7 11 10 6 11 7 7 3 5 4 5 5 4 4 2 2 4 4 3 4 3 1 2 4 2 2 2 3 3 3 2 1 2 1 1 1 1 1 1 1 1 1 1 2 2 4 4 5 5 6 6 6 4 4 8 7 8 7 7 8 7 6 6 6 6 6 6 6 6 6 5 5
5 3 5 13 13 14 14 5 3 8 6 4 3 9 8 8 12 12 7 10 14 2 6 3 3 5 8 8 6 5 3 3 6 5 2 1 1 0 1 4 4 3 3 3 3 2 0 0 1 1 1 1 1 1 1 2 2 1 5 8 7 6 6 5 6 4 3 3 7 8 7 7 7 7 7 7 6 6 6 7 6 7 7 6 6 6
2 7 8 11 17 15 7 3 6 12 9 9 11 11 9 8 9 11 12 15 5 7 17 5 6 5 10 9 11 10 7 4 3 3 2 1 2 3 3 2 1 1 2 1 1 2 4 4 4 4 3 1 1 0 1 2 4 5 6 7 5 5 4 4 5 4 3 4 7 8 7 6 5 5 5 5 4 5 5 6 7 6 6 6 8 8
4 7 14 9 14 16 10 3 4 6 10 10 12 10 10 9 10 16 16 15 11 12 13 9 7 12 18 13 13 14 15 14 10 6 5 3 2 3 3 4 4 5 4 4 5 4 5 6 6 5 2 1 1 2 4 4 4 5 5 5 4 4 4 3 4 4 4 5 8 7 5 5 4 5 5 5 5 6 6 6 5 5 5 6 6 6
5 8 8 9 16 13 5 5 3 6 4 5 10 13 13 12 14 14 14 13 14 11 7 11 6 14 15 7 8 12 4 2 3 0 1 3 5 6 6 6 7 6 6 8 9 8 7 6 4 4 2 1 1 2 2 3 3 3 4 4 3 4 3 4 4 5 5 7 6 5 5 5 5 5 5 6 6 5 4 5 5 6 6 7 6 6
9 9 8 6 8 11 9 7 5 6 6 8 6 7 8 10 13 15 14 13 12 12 13 14 10 11 7 3 5 2 0 2 1 1 4 7 7 8 7 7 8 9 9 9 9 8 7 5 4 2 2 3 3 4 3 4 3 3 3 3 4 4 3 4 5 5 6 7 5 5 5 5 5 5 7 5 5 5 6 6 5 6 7 7 6 6
7 4 2 5 7 9 5 10 12 6 4 5 6 4 5 5 8 8 11 11 11 13 14 14 14 13 12 9 8 5 2 5 6 5 6 7 9 8 9 11 11 12 11 11 9 7 6 7 6 5 6 5 5 5 5 5 4 4 4 3 4 4 3 5 6 7 7 5 5 6 6 5 5 7 6 6 7 6 5 5 6 7 6 6 7 6
5 3 4 4 7 12 2 8 6 3 3 9 15 13 13 11 13 11 13 11 13 13 12 12 14 15 17 9 10 10 7 6 5 6 8 10 6 7 10 10 10 9 10 9 8 9 9 8 8 8 6 5 6 6 5 5 6 5 4 5 3 3 5 6 6 6 7 6 6 6 6 5 6 7 7 6 5 5 6 6 8 8 8 8 5 4
5 9 6 5 7 4 2 5 4 5 12 14 17 18 18 17 14 12 10 13 12 12 10 13 15 13 11 7 11 14 8 8 10 11 10 9 8 7 8 8 8 8 5 4 5 6 5 4 5 6 6 6 5 5 5 4 6 5 4 4 3 5 4 6 6 7 6 6 6 5 5 5 6 7 6 5 5 6 7 7 7 5 4 4 5 6
10 8 6 2 4 2 1 6 4 11 13 13 3 5 15 17 14 16 16 14 12 12 11 11 11 12 9 7 9 8 6 9 10 10 7 3 1 5 8 9 8 7 8 6 5 4 6 9 8 5 5 7 7 5 6 5 6 6 5 4 6 4 6 6 7 7 6 7 5 5 6 6 6 6 5 5 5 6 7 6 5 6 6 5 6 6
9 10 4 1 3 4 1 7 6 11 5 2 1 2 3 8 13 12 16 17 15 15 17 17 16 13 9 9 9 5 5 6 4 2 3 4 5 5 5 8 11 10 9 8 8 8 9 9 11 12 10 5 7 6 6 7 6 8 6 4 6 5 5 6 7 6 6 7 6 6 5 5 5 5 5 5 5 6 6 5 5 6 5 5 5 4
9 6 7 6 2 7 4 7 9 7 10 5 2 4 9 9 8 13 14 17 15 9 11 13 16 16 15 12 1 3 3 2 1 7 5 9 10 10 12 12 10 9 7 6 8 10 8 5 5 4 6 6 7 8 7 7 7 8 7 7 5 6 5 7 8 6 6 6 5 5 4 4 5 5 5 5 5 6 5 5 5 5 4 4 5 6
6 11 7 9 4 5 4 2 0 5 9 18 11 0 4 7 12 12 10 10 3 10 14 16 17 17 15 5 6 4 4 2 3 9 10 10 8 8 7 9 6 1 3 6 4 2 2 4 5 6 9 9 7 6 7 7 8 9 8 7 5 7 6 7 7 5 5 5 4 4 4 4 4 5 4 4 5 4 3 3 2 3 3 4 5 6
3 4 3 13 4 4 4 6 7 7 15 1 5 6 8 6 10 6 5 13 8 15 16 17 17 15 13 8 6 7 6 3 8 11 12 3 5 7 10 9 6 6 5 3 4 5 5 5 7 8 8 9 10 7 7 8 9 10 8 6 6 6 7 7 5 5 5 4 4 4 4 4 4 4 4 4 4 3 4 4 3 3 2 3 1 2
9 6 4 5 4 9 10 8 11 6 7 2 5 3 6 8 11 9 3 10 11 8 11 12 16 16 11 9 11 9 10 9 11 13 2 4 3 4 5 8 8 7 4 1 1 4 6 8 10 8 10 11 10 8 9 8 9 9 9 6 6 8 7 5 5 4 4 4 4 4 4 3 4 4 4 4 3 3 3 2 3 3 3 3 3 3
7 4 7 12 12 8 10 6 2 7 4 3 4 1 5 7 10 8 12 11 3 11 12 14 16 16 9 11 11 10 12 14 7 2 3 1 3 1 1 1 2 1 2 2 3 6 7 6 8 10 9 8 9 8 7 8 11 9 7 6 8 7 5 4 4 4 4 4 4 4 4 3 3 3 3 3 3 2 2 3 4 4 5 5 5 5
2 3 1 2 6 10 9 8 8 5 6 8 1 10 7 7 3 15 7 0 4 5 5 8 12 9 6 12 10 11 10 9 1 1 0 1 1 1 1 2 2 4 5 4 5 6 7 7 8 9 8 6 9 7 7 10 11 8 7 8 8 5 3 4 4 4 4 4 4 4 4 4 3 3 3 2 3 3 4 4 4 4 5 4 5 7
8 8 7 10 2 4 4 7 2 11 3 9 11 4 2 5 6 4 2 1 1 2 6 5 6 5 8 8 10 11 9 1 1 1 0 1 2 2 2 0 1 3 4 5 6 4 8 9 9 8 8 6 6 6 7 12 11 8 7 9 6 4 5 4 4 4 4 4 5 4 4 4 4 4 4 5 5 6 6 6 7 6 6 8 8 9
1 4 3 4 7 8 6 8 9 5 7 9 15 8 7 10 3 6 6 2 0 3 5 4 6 6 6 9 10 9 6 4 1 1 1 0 1 2 3 3 4 5 6 5 5 6 10 11 9 9 6 6 5 6 6 11 10 8 9 8 4 5 5 5 4 5 5 4 4 4 4 3 3 4 4 5 4 4 5 6 6 5 7 7 7 7
10 8 3 8 4 7 7 5 0 3 11 13 11 8 12 8 3 7 5 6 5 3 4 1 3 4 7 6 5 7 4 7 4 5 6 4 3 3 4 4 5 7 7 9 8 8 8 13 12 11 9 7 7 6 7 7 12 9 8 3 4 5 5 5 4 5 6 5 4 4 3 3 3 4 4 4 5 7 7 7 7 7 6 6 6 5
3 2 4 3 3 3 5 3 1 1 3 7 4 2 2 6 2 3 4 4 3 4 7 5 3 4 4 4 5 3 5 5 7 4 4 5 4 4 5 7 6 7 8 9 9 10 11 11 12 12 12 8 7 8 6 7 9 11 7 5 5 5 5 5 6 7 6 5 5 6 6 7 6 6 7 7 6 6 5 6 6 6 6 5 5 4
1 1 3 4 1 6 8 8 9 6 4 7 11 4 1 1 4 4 3 3 2 5 4 4 2 3 5 5 6 4 3 4 7 5 5 6 6 6 7 8 8 9 11 12 10 11 12 11 12 12 11 10 6 8 7 7 7 8 7 6 5 4 5 6 7 6 6 7 6 6 7 8 7 7 7 7 7 6 5 4 4 4 5 5 6 6
3 2 1 3 6 11 8 3 6 6 7 7 9 9 6 5 5 5 3 1 2 3 3 2 2 2 3 4 4 3 5 5 8 8 7 7 8 8 8 9 10 9 7 10 10 11 11 12 12 12 11 11 8 7 8 8 8 7 6 5 4 5 7 7 7 7 6 6 5 5 5 6 6 7 6 5 4 5 6 3 2 4 5 6 6 7
4 8 6 7 7 5 5 3 1 1 3 4 3 4 6 7 4 2 1 1 2 2 1 1 1 2 5 4 4 5 6 5 6 10 10 8 8 8 9 9 10 12 12 11 10 11 13 11 12 12 12 10 8 8 8 8 7 6 7 5 5 5 8 7 6 6 5 4 4 5 4 4 3 3 4 5 5 3 2 5 7 7 6 3 3 3
6 10 2 6 8 6 14 9 8 5 3 6 9 12 13 10 3 2 3 2 3 4 4 4 1 0 3 3 5 6 7 7 6 8 10 9 10 9 9 9 8 10 9 7 7 6 7 7 10 10 9 8 7 7 8 8 8 6 5 5 5 5 7 6 5 5 4 3 3 2 3 3 3 5 5 6 6 8 8 5 5 6 6 8 8 10
12 11 8 9 9 12 3 10 12 5 4 7 11 11 10 5 6 5 6 6 6 4 4 5 4 1 2 1 3 6 7 9 9 7 8 7 8 8 9 11 11 9 9 8 9 7 8 6 6 7 8 7 7 8 8 8 7 6 5 5 4 5 5 4 5 3 2 2 3 3 4 4 4 4 4 4 5 5 6 9 7 8 12 12 11 12
Wind_Direction
153 205 194 200 204 204 205 209 224 49 146 210 218 237 213 214 275 298 261 247 244 198 218 221 231 222 224 225 238 237 208 214 235 240 241 247 245 240 239 236 237 238 242 250 270 253 242 242 233 227 218 226 223 224 218 216 220 218 216 206 220 206 193 195 192 192 191 198 200 214 219 226 219 218 217 221 217 217 219 210 208 212 217 217 217 218
186 216 214 213 214 205 203 203 222 262 289 133 167 206 241 172 231 222 193 247 229 186 246 229 240 237 229 224 235 236 224 231 220 227 231 237 237 238 236 243 239 240 267 280 271 261 261 251 244 234 224 215 219 228 209 214 221 218 212 210 221 188 197 201 199 197 197 200 199 196 211 214 213 209 208 222 211 214 210 208 209 212 214 213 215 216
212 219 221 220 215 195 190 198 207 215 229 34 132 227 217 226 276 307 243 251 323 150 254 199 234 245 241 233 246 240 227 230 219 218 219 214 230 238 242 248 254 258 256 260 253 260 253 253 247 225 230 228 221 229 207 221 226 222 211 218 217 199 201 204 200 194 206 205 208 204 215 195 220 221 219 221 209 196 207 210 213 217 216 213 218 214
228 225 233 227 189 193 204 197 199 224 250 232 227 198 225 173 175 253 261 188 232 177 225 233 247 265 268 246 239 242 228 233 234 233 238 222 225 231 233 234 241 246 249 255 250 246 246 239 242 229 235 232 227 233 225 224 223 220 215 218 211 208 205 203 202 204 212 207 207 216 216 185 196 203 200 212 204 203 202 219 216 221 218 217 219 211
226 330 237 163 183 195 197 183 187 202 227 227 225 232 239 155 207 215 238 209 243 298 94 307 298 277 220 244 243 249 243 247 249 258 260 256 236 241 252 259 243 243 241 248 261 259 251 242 235 224 227 229 222 227 226 223 218 213 215 217 212 211 208 210 205 207 204 182 185 192 177 110 211 309 203 197 228 211 215 222 210 223 216 218 219 213
243 242 141 180 197 187 183 189 198 193 224 230 226 215 224 156 200 67 303 127 240 266 212 152 297 261 235 221 230 228 236 234 232 230 239 239 239 229 239 242 247 245 241 239 247 252 256 259 263 244 235 228 225 228 226 220 221 215 221 219 214 211 211 212 209 201 185 195 191 172 183 204 215 226 206 213 219 209 210 216 224 230 206 213 217 214
240 227 170 209 197 180 191 202 200 186 219 222 226 201 194 169 188 177 188 136 219 223 273 94 219 268 34 227 221 220 226 237 213 220 233 232 235 232 232 235 240 242 246 244 250 256 259 259 260 264 247 231 227 233 228 208 218 220 226 222 209 208 213 212 207 188 185 197 197 197 202 209 209 218 229 227 229 217 220 220 222 219 200 206 209 216
191 221 204 197 201 188 193 208 193 185 206 232 157 131 138 188 191 195 180 198 241 291 315 52 210 256 272 256 233 217 226 242 236 235 238 234 234 238 234 228 233 238 239 241 240 242 244 249 247 250 251 246 230 234 200 215 218 219 226 224 218 218 219 214 201 183 189 198 202 206 213 215 219 217 231 223 226 211 203 201 221 210 212 207 208 212
206 215 211 201 197 206 206 204 187 184 201 218 127 147 194 196 154 128 156 211 215 75 271 306 12 277 251 264 210 176 236 253 244 235 237 236 233 238 242 236 231 232 234 235 243 246 240 238 240 243 262 261 251 243 227 221 223 222 226 225 222 223 220 218 195 190 195 201 201 205 210 222 230 233 239 237 186 205 199 211 217 209 214 208 211 212
24 222 216 196 207 221 221 222 180 172 207 219 161 167 164 154 176 174 185 170 290 191 230 200 166 234 269 234 183 244 216 241 242 228 237 233 230 234 236 242 241 239 243 243 241 243 245 242 251 258 248 285 237 247 236 235 229 229 225 225 222 229 222 217 202 197 201 202 202 203 207 216 227 225 238 231 224 221 188 212 220 214 211 212 212 216
199 247 256 176 208 216 204 222 194 195 201 112 132 92 119 160 180 176 161 128 71 236 232 204 197 190 269 236 208 187 211 231 258 252 233 234 239 243 241 241 242 237 234 236 238 242 246 260 314 314 284 270 273 248 235 240 231 229 219 222 222 229 224 203 198 192 204 202 201 209 212 216 224 228 226 231 238 231 217 226 229 212 217 203 215 208
253 330 231 255 22 118 139 206 13 325 256 156 165 131 101 344 64 136 327 137 223 240 228 204 198 182 229 254 202 218 248 220 218 236 226 229 230 231 236 234 237 238 236 237 238 245 255 292 300 334 288 273 263 264 257 251 244 231 226 218 227 238 218 202 197 194 205 197 202 209 212 217 223 225 219 220 234 226 219 222 230 221 206 220 217 210
237 230 210 333 271 163 169 171 312 42 185 260 119 136 182 206 146 226 151 202 207 225 226 188 167 234 230 247 189 272 270 274 256 236 230 222 226 225 227 227 224 226 230 233 239 251 264 265 277 284 270 275 272 261 254 249 239 233 226 212 215 236 212 205 193 197 203 197 205 205 209 216 217 216 217 220 227 228 219 219 225 213 218 217 210 216
271 231 208 255 289 199 188 189 120 211 228 207 173 164 183 191 194 206 198 220 251 249 220 120 179 227 277 277 238 254 244 252 252 238 236 240 246 256 254 250 247 246 242 246 245 245 256 253 254 254 265 270 275 272 259 256 248 235 223 214 209 234 196 202 196 202 199 207 208 206 209 214 210 216 216 221 225 231 222 214 220 214 214 214 217 212
234 246 224 162 233 162 197 214 191 186 167 200 196 185 198 190 182 205 190 202 203 209 357 188 109 227 168 233 320 226 234 232 242 247 248 235 241 247 260 272 272 262 252 232 227 227 232 244 244 256 253 257 257 264 271 276 268 250 233 212 215 227 213 195 198 195 205 211 211 211 215 218 211 220 220 227 227 231 225 222 220 226 216 218 225 215
219 240 254 201 196 161 194 210 93 109 130 208 220 225 207 215 205 237 182 181 164 121 145 197 205 188 226 302 303 247 343 295 266 243 244 247 241 249 262 256 251 249 249 238 238 255 255 245 247 253 256 254 275 337 356 6 356 27 208 187 196 194 179 162 193 211 222 234 228 221 216 218 216 223 226 237 232 236 225 230 222 236 228 232 235 231
170 243 170 125 205 171 184 183 179 169 202 177 162 218 216 6 223 290 358 242 74 174 231 148 276 280 323 280 255 271 295 282 280 262 250 246 248 240 245 252 262 255 253 235 232 230 242 249 249 252 219 38 33 27 13 36 12 337 84 114 107 98 85 73 53 61 77 101 146 220 236 251 236 230 228 232 240 237 231 228 231 232 234 231 228 233
172 225 248 101 216 269 230 157 157 204 154 140 206 212 81 48 96 163 222 221 200 209 240 173 221 247 199 271 303 219 217 233 242 236 241 241 254 261 254 248 246 249 237 234 226 176 199 204 164 67 40 29 38 9 315 51 23 325 327 68 75 45 59 31 38 43 39 47 81 60 82 245 215 214 219 219 228 228 227 234 235 240 252 242 242 232
137 260 284 209 199 150 93 95 131 299 302 202 180 358 175 206 238 141 253 225 156 215 237 220 206 231 191 240 236 217 217 222 232 245 256 263 253 248 252 251 265 237 221 190 180 167 167 133 79 55 40 351 1 348 344 3 12 295 16 56 63 60 24 16 16 20 29 35 40 44 43 40 16 343 287 290 290 278 235 255 260 256 256 287 268 248
173 206 285 342 103 170 134 149 212 188 258 21 64 92 209 15 253 193 197 307 168 234 213 246 162 237 199 228 229 214 225 210 223 244 242 242 242 241 254 270 254 231 209 186 168 166 150 106 63 29 9 21 10 9 6 6 325 9 38 61 56 55 42 34 30 21 44 19 48 57 57 41 41 40 57 62 54 67 38 310 310 277 268 250 251 240
234 150 244 299 313 154 182 178 214 204 188 167 197 192 141 200 295 35 254 210 184 202 224 245 242 270 246 212 182 206 208 197 208 223 231 238 250 247 238 236 239 220 161 157 155 145 123 96 61 28 354 351 15 28 39 39 19 8 51 64 59 71 44 46 17 34 35 46 57 67 58 44 39 44 50 66 59 73 54 36 19 19 313 351 10 331
138 185 213 156 172 193 214 189 218 216 182 191 196 210 196 180 226 216 242 176 189 205 218 216 247 254 278 189 214 214 227 202 221 230 246 274 288 239 273 293 304 191 152 151 147 130 121 112 90 25 1 350 68 52 56 21 35 40 47 42 45 62 46 46 29 35 56 62 65 64 59 52 47 48 53 64 53 58 48 40 35 23 37 61 34 33
172 134 125 199 195 206 222 349 32 85 156 190 190 225 188 205 211 232 242 234 30 232 233 192 306 264 242 251 240 249 268 261 262 257 256 265 258 285 309 326 42 108 140 131 120 117 121 123 125 121 76 52 60 62 53 40 40 33 30 36 36 62 43 46 36 25 41 59 58 56 56 58 51 51 53 56 41 42 31 21 21 14 59 59 53 49
283 110 134 299 276 340 357 334 38 42 122 275 239 213 157 204 201 225 241 249 213 140 225 231 241 231 4 255 240 262 264 267 265 221 247 264 284 299 300 56 114 104 91 91 73 69 84 117 107 87 65 48 41 47 46 42 38 37 35 33 52 62 46 50 41 32 46 68 60 40 45 48 49 66 62 64 46 48 27 20 23 11 41 47 53 55
186 197 177 171 5 163 269 270 284 335 227 204 202 210 208 197 201 151 66 59 332 233 204 200 241 254 276 334 313 2 353 342 325 299 205 247 253 241 141 162 146 131 127 134 141 145 105 110 110 101 68 55 46 49 49 53 57 84 95 82 66 54 43 53 43 46 28 57 67 46 41 29 22 48 53 55 46 42 33 27 23 26 27 24 50 38
199 193 183 198 198 200 212 205 208 193 202 202 263 208 212 198 188 146 235 209 243 223 193 196 240 244 289 330 349 351 9 342 346 350 352 205 189 164 142 168 188 179 180 166 152 123 173 193 79 81 107 99 88 114 127 163 178 193 156 81 64 52 39 42 48 48 32 42 72 59 47 33 30 27 26 32 38 35 32 30 29 26 28 20 28 29
198 190 195 212 213 216 220 217 36 79 61 195 220 198 207 197 198 209 233 236 231 230 259 210 242 308 303 295 302 304 9 2 325 336 340 348 18 301 185 178 191 200 200 190 181 203 296 296 222 206 211 206 164 146 177 183 183 100 63 52 41 38 40 37 53 51 53 63 76 70 52 43 35 30 26 23 22 27 36 38 35 38 31 20 39 34
73 212 219 222 227 232 224 156 189 147 178 199 197 216 207 193 187 199 206 233 217 245 251 207 214 255 255 264 275 286 289 275 255 254 258 213 212 209 203 203 220 247 249 259 250 217 212 219 222 221 211 193 159 27 73 51 50 56 60 61 47 38 44 42 65 63 43 52 68 70 65 60 54 48 42 33 31 37 40 40 40 39 34 36 39 33
164 204 219 202 238 235 222 188 200 183 178 189 203 208 204 191 182 200 216 225 215 227 242 243 209 229 253 241 262 276 276 277 258 236 219 191 155 168 165 185 200 217 219 221 229 224 220 219 216 214 211 210 56 62 43 46 47 55 57 58 60 64 50 44 78 74 68 60 60 55 56 60 61 57 51 43 42 37 37 43 51 55 55 51 46 39
162 239 217 194 237 241 231 219 168 187 219 213 205 206 202 183 196 204 219 221 221 232 233 250 196 230 245 256 218 248 259 230 251 255 108 139 197 192 189 189 204 211 214 215 216 217 221 228 227 216 197 157 94 73 71 64 66 66 79 74 67 76 37 75 73 77 66 63 58 51 51 56 55 55 55 51 45 36 34 37 37 47 51 50 50 47
183 228 179 157 227 238 219 221 214 196 190 221 233 223 211 198 198 202 210 220 220 233 238 248 242 245 255 244 254 270 74 116 77 215 213 204 208 201 194 197 206 212 215 219 222 218 214 220 233 230 202 201 176 167 158 150 136 111 94 92 87 78 61 85 84 75 68 63 50 48 48 54 51 53 51 42 44 35 32 30 34 44 43 41 40 39
178 268 53 132 199 250 200 202 219 213 216 243 259 248 203 187 208 211 212 212 201 213 223 235 248 252 256 229 245 239 197 185 193 208 222 222 214 202 197 201 203 208 212 211 212 210 203 208 207 206 207 202 189 177 169 158 151 128 119 110 95 92 88 85 81 78 68 62 56 49 46 42 44 49 43 39 35 30 23 26 35 37 35 36 32 23
179 121 121 155 191 241 221 192 202 184 308 275 247 223 205 201 203 209 218 211 205 199 212 219 232 230 239 215 220 239 222 237 221 211 225 236 221 181 203 209 210 213 214 208 202 208 208 203 202 202 203 192 189 179 184 157 137 135 139 112 113 98 83 81 82 80 70 56 57 51 51 47 49 47 40 33 31 28 30 33 33 28 23 22 8 20
165 183 199 179 192 234 24 137 117 139 223 230 234 214 199 206 199 207 216 214 215 190 210 210 224 231 237 203 204 232 201 216 217 226 215 213 209 201 219 226 229 229 232 226 220 211 203 198 211 211 199 193 181 178 156 152 135 129 116 111 100 92 84 87 71 73 68 60 52 49 50 52 56 53 42 33 35 37 40 39 33 23 19 10 16 30
180 193 209 201 191 205 181 103 143 216 230 240 28 157 196 213 209 213 225 218 214 214 227 239 242 247 234 217 223 230 200 221 231 234 244 262 204 199 214 225 233 231 226 220 220 211 198 201 204 184 189 193 176 153 130 114 118 117 101 103 92 83 90 79 82 69 66 63 50 49 44 48 50 48 39 35 37 41 41 35 26 26 15 18 16 18
184 185 147 150 121 61 141 172 207 225 243 46 195 5 189 187 214 215 241 239 222 208 209 224 235 241 240 234 233 235 203 231 280 293 252 228 194 201 209 224 227 218 217 211 204 212 207 202 193 192 193 154 138 144 138 138 135 114 108 97 99 94 85 87 79 74 68 62 51 49 42 51 51 46 38 35 35 43 35 27 24 20 359 11 11 10
195 165 174 216 195 191 182 194 234 346 321 276 241 198 156 182 167 187 223 242 224 198 193 221 234 236 237 237 145 136 158 107 348 296 252 218 216 213 213 226 225 223 215 217 202 219 215 202 184 154 128 142 145 139 143 139 128 118 115 99 96 92 88 83 76 69 68 66 54 49 44 48 54 49 42 34 42 37 29 21 12 10 1 14 15 13
201 191 192 194 219 154 128 201 52 241 254 250 228 329 185 180 179 187 194 264 161 193 197 208 223 229 236 201 158 171 117 87 295 262 250 239 224 227 241 241 253 264 225 234 238 241 136 139 127 139 143 141 136 139 137 137 126 118 107 106 100 92 82 79 76 73 71 64 53 48 45 44 50 52 41 42 40 30 18 14 10 15 357 17 4 6
263 305 219 198 171 108 157 201 214 212 239 303 145 175 182 169 149 109 145 249 226 196 199 201 218 226 219 172 168 143 122 170 232 246 250 204 228 230 240 251 243 231 221 202 193 189 163 145 137 132 124 129 132 147 139 133 123 113 110 106 101 93 88 83 84 78 78 71 60 51 47 43 46 46 45 41 24 20 21 14 5 326 351 353 357 330
195 194 130 193 173 191 189 194 221 212 249 208 194 206 174 138 113 111 118 262 240 172 205 193 215 224 216 152 157 160 164 210 231 248 180 179 229 230 204 235 254 267 285 137 183 165 142 129 116 126 142 149 150 148 142 131 115 111 112 110 105 93 93 98 103 99 91 83 67 63 50 48 48 37 45 37 19 9 2 343 4 356 2 356 4 358
178 195 183 194 200 195 183 227 331 287 269 233 228 158 131 140 115 128 204 235 206 193 193 186 207 218 191 158 172 184 212 213 221 154 127 118 76 44 324 313 286 342 298 160 126 121 126 136 139 146 147 137 135 136 131 118 108 105 107 109 95 95 107 116 109 96 95 90 81 69 62 51 69 58 33 30 20 350 6 19 20 4 15 7 1 7
163 130 101 88 201 195 198 198 230 264 233 181 308 151 166 102 188 203 222 243 158 189 220 194 206 214 147 167 187 209 221 229 121 105 87 111 133 199 312 321 37 50 47 73 104 115 112 106 107 103 98 114 127 129 123 111 104 107 108 96 94 111 122 109 102 96 88 82 75 72 59 52 34 50 51 25 26 33 31 19 19 19 15 7 6 8
179 174 190 191 154 44 105 198 101 246 240 123 117 86 315 162 235 195 181 308 216 199 159 209 206 216 142 189 203 211 231 214 155 207 104 106 153 190 207 60 80 83 87 90 85 81 111 107 101 99 108 111 114 117 119 110 108 109 104 97 112 118 107 103 98 91 84 72 64 57 50 39 41 36 30 27 23 28 27 15 15 14 17 13 10 10
151 179 155 199 179 172 172 188 213 216 116 181 134 173 203 212 200 155 124 103 296 162 177 175 219 201 182 180 199 223 234 237 272 159 106 66 78 97 93 92 94 94 82 76 96 109 104 100 99 96 88 92 95 100 107 108 106 103 98 99 115 108 103 94 92 89 73 66 60 57 50 44 46 47 41 33 27 38 34 23 15 16 22 15 15 8
202 196 186 185 190 173 198 207 13 201 160 182 185 181 200 182 141 185 137 149 164 234 198 140 232 194 189 181 169 174 194 212 190 182 171 189 165 132 119 122 125 119 118 112 110 108 109 113 111 104 91 88 91 89 90 103 110 105 96 105 112 108 100 94 83 69 56 51 51 46 48 53 54 46 40 33 30 30 24 20 19 14 6 14 11 11
323 186 143 90 268 293 280 210 212 316 260 226 269 151 120 168 211 160 140 126 225 184 165 184 193 175 187 183 151 207 201 165 142 136 130 145 136 123 115 110 106 111 111 114 111 114 116 111 107 106 105 93 94 94 98 103 111 109 126 130 116 111 104 87 69 56 46 42 39 33 24 30 28 33 28 28 33 37 30 25 13 11 350 0 358 4
241 124 134 167 195 119 243 224 192 217 236 217 226 216 154 212 217 189 191 216 195 172 198 243 168 167 182 165 196 186 167 146 133 140 143 140 139 141 135 128 130 133 132 126 135 126 120 117 114 116 116 114 112 113 113 109 102 113 124 117 115 104 92 75 68 60 46 38 36 30 28 30 21 9 12 15 15 21 22 19 19 6 353 350 347 345
267 180 89 209 162 189 240 191 217 198 210 218 214 221 249 245 233 217 223 206 163 169 172 211 141 150 131 185 201 134 155 164 142 153 150 154 150 148 144 142 138 130 135 136 142 132 128 128 130 130 126 126 135 128 119 112 109 112 110 102 96 93 78 68 59 58 48 43 43 42 35 36 23 20 5 3 6 360 353 2 15 13 349 336 336 338
157 137 217 171 182 245 343 284 16 7 331 297 299 267 241 237 226 178 170 104 111 143 187 79 131 179 179 206 151 131 137 185 163 156 151 151 149 150 154 152 151 144 146 146 151 145 142 142 138 140 136 136 134 119 108 104 98 89 82 74 69 77 77 71 63 62 56 44 44 40 43 48 34 15 4 354 357 358 359 349 344 340 324 283 246 252
113 200 190 112 212 211 218 205 129 121 232 242 241 224 223 228 166 137 146 164 176 189 193 168 91 31 195 178 163 161 152 165 169 157 154 158 157 155 151 151 149 142 140 139 131 129 126 130 134 134 126 113 109 103 98 91 84 75 68 67 63 74 79 76 68 63 55 52 56 54 40 28 28 24 14 6 351 341 331 342 331 306 292 297 292 277
193 200 147 193 192 229 165 143 185 161 204 218 211 221 223 179 149 166 188 198 212 210 171 158 164 135 147 220 188 161 161 157 167 155 145 153 158 157 155 152 149 142 136 134 124 123 127 128 118 106 98 102 101 98 99 93 83 75 62 63 61 78 88 92 87 82 54 45 37 33 21 23 16 15 10 358 349 338 327 316 318 300 287 273 268 265